Tracking 18980 objects as of 22-Feb-2018
HD Live streaming from Space Station
objects crossing your sky now

COSMOS 2368

Track COSMOS 2368 now!
COSMOS 2368 is classified as:


NORAD ID: 26042
Int'l Code: 1999-073A
Perigee: 3,962.1 km
Apogee: 36,448.1 km
Inclination: 67.0 °
Period: 718.6 minutes
Semi major axis: 26576 km
RCS: 7.9432 m2 (large)
Launch date: December 27, 1999
Source: Commonwealth of Independent States (former USSR) (CIS)
Launch site: PLESETSK MISSILE AND SPACE COMPLEX (PKMTR)
aabbcc
Your satellite tracking list
Your tracking list is empty




NASA's NSSDC Master Catalog

Two Line Element Set (TLE):
1 26042U 99073A   18052.26365399 -.00000776 +00000-0 +00000-0 0  9992
2 26042 066.9682 158.6896 6111866 221.6537 066.3977 02.00385246132982
Source of the keplerian elements: AFSPC